Weather in Hanover

Germany     52°22′40″N   9°43′24″E
temp.,
°C
wind,
m/s
gust,
m/s
humid.,
%
clouds,
%
prec.,
mm/h
press.,
hPa
HPBL,
m
4 march, thu
thu401:00+5wnw37920 0.0 1023296
04:00+4wnw479229 0.0 1021433
07:00+3wnw469165 0.0 1020472
10:00+3wnw4681100 0.0 1019627
13:00+6wnw4771100 0.0 1019783
16:00+7nw4766100 0.0 1018963
19:00+4n477493 0.0 1019587
22:00+3nne4776100 0.0 1021718
5 march, fri
fri501:00+1n377388 0.1 1023449
04:00−1n26740 0.0 1024271
07:00−1n25730 0.0 1026251
10:00+3n24520 0.0 1028619
13:00+5n34300 0.0 10291492
16:00+6nnw33330 0.0 10291718
19:00+3nnw23490 0.0 1030137
22:00+1nnw23600 0.0 103284
6 march, sat
sat601:000nw11680 0.0 103348
04:000w22720 0.0 103362
07:000w24740 0.0 1033133
10:00+3w355719 0.0 1033658
13:00+5w345156 0.0 10331222
16:00+5wnw345598 0.0 10311204
19:00+3nw247898 0.1 1030428
22:00+3nw248299 0.1 1030238
7 march, sun
sun701:00+1w228965 0.1 102976
04:000w24820 0.0 1027137
07:00−1w25810 0.0 1026212
10:00+3w35631 0.0 1026845
13:00+4wnw465745 0.0 10241221
16:00+4wnw4660100 0.0 10231130
19:00+2w3876100 0.0 1023443
22:00+2wnw479698 0.2 1023444
8 march, mon
mon801:00+2w369599 0.2 1023340
04:00+2w3793100 0.5 1023288
07:00+2wnw3595100 1.1 1024254
10:00+4wnw248891 0.0 1025344
13:00+5wnw238696 0.0 1025348
16:00+4w2490100 0.1 1024294
19:00+4ssw1290100 0.1 102580
22:00+4ssw248298 0.0 1025123